Orbital Elements at Epoch 2459000.5 (2020-May-31.0) TDB
Reference: JPL 20 (heliocentric ecliptic J2000)
Element | Value | Uncertainty (1-sigma) | Units |
e | .09625921981569983 | 4.2817e-08 | |
a | 2.658352370323156 | 1.5148e-08 | au |
q | 2.402461445160632 | 1.1552e-07 | au |
i | 15.46298122400182 | 5.5119e-06 | deg |
node | 44.62227738737285 | 2.2655e-05 | deg |
peri | 210.2518847133198 | 4.1805e-05 | deg |
M | 281.9709551019778 | 3.6297e-05 | deg |
tp | 2459343.639755732595 (2021-May-09.13975573) | 0.00016025 | TDB |
period | 1583.132437737495 4.33 | 1.3531e-05 3.705e-08 | d yr |
n | .2273972735436383 | 1.9436e-09 | deg/d |
Q | 2.914243295485679 | 1.6606e-08 | au |
|
| | Orbit Determination Parameters
Additional Information
|